GLOBALSTAR M094

Last updated on Sun Jun 21 2026 00:03:18 GMT+0000 (Coordinated Universal Time)

1 39074U 13005C 26171.30335137 -.00000109 00000+0 -28829-4 0 9998 2 39074 51.9933 141.3104 0000491 11.3089 348.7789 12.62268528618862
UTC large
Height (km)
Speed (km/s)
/
Latitude / Longitude
Inclination (degrees)
Orbital Period (minutes)
Azimuth
Elevation
Range (km)
Doppler Factor

Next 0 passes for location: London (51.5072 / 0.1276)

No passes found over London.
GLOBALSTAR M094